SCP
0 0 0 0 0 0 0 0 0 0 0 0 0 0 0 0 0 0 0 0 0 0 0 0 0 0 0 0 0 0 0 0 0 0 0 0 0 0 0 0 0 0 0
0 0 0 0 0 0 0 0 0 0 0 0 0 0 0 0 0 0 0 0 0 0 0 0 0 0 0 0 0 0 0 0 0 0 0 0 0 0 0 0 0 0 0
0 0 0 0 0 0 0 0 0 0 0 0 0 0 0 0 0 0 0 0 0 0 0 0 0 0 0 0 0 0 0 0 0 0 0 0 0 0 0 0 0 0 0
0 0 0 0 0 0 0 0 0 0 0 0 0 0 0 0 0 0 0 0 0 0 0 0 0 0 0 0 0 0 0 0 0 0 0 0 0 0 0 0 0 0 0
0 0 0 0 0 0 0 0 0 0 0 0 0 0 0 0 0 0 0 0 0 0 0 0 0 0 0 0 0 0 0 0 0 0 0 0 0 0 0 0 0 0 0
0 0 0 0 0 0 0 0 0 0 0 0 0 0 0 0 0 0 0 0 0 0 0 0 0 0 0 0 0 0 0 0 0 0 0 0 0 0 0 0 0 0 0
0 0 0 0 0 0 0 0 0 0 0 0 0 0 0 0 0 0 0 0 0 0 0 0 0 0 0 0 0 0 0 0 0 0 0 0 0 0 0 0 0 0 0
0 0 0 0 0 0 0 0 0 0 0 0 0 0 0 0 0 0 0 0 0 0 0 0 0 0 0 0 0 0 0 0 0 0 0 0 0 0 0 0 0 0 0
0 0 0 0 0 0 0 0 0 0 0 0 0 0 0 0 0 0 0 0 0 0 0 0 0 0 0 0 0 0 0 0 0 0 0 0 0 0 0 0 0 0 0
0 0 0 0 0 0 0 0 0 0 0 0 0 0 0 0 0 0 0 0 0 0 0 0 0 0 0 0 0 0 0 0 0 0 0 0 0 0 0 0 0 0 0
0 0 0 0 0 0 0 0 0 0 0 0 0 0 0 0 0 0 0 0 0 0 0 0 0 0 0 0 0 0 0 0 0 0 0 0 0 0 0 0 0 0 0
0 0 0 0 0 0 0 0 0 0 0 0 0 0 0 0 0 0 0 0 0 0 0 0 0 0 0 0 0 0 0 0 0 0 0 0 0 0 0 0 0 0 0
0 0 0 0 0 0 0 0 0 0 0 0 0 0 0 0 0 0 0 0 0 0 0 0 0 0 0 0 0 0 0 0 0 0 0 0 0 0 0 0 0 0 0
0 0 0 0 0 0 0 0 0 0 0 0 0 0 0 0 0 0 0 0 0 0 0 0 0 0 0 0 0 0 0 0 0 0 0 0 0 0 0 0 0 0 0
0 0 0 0 0 0 0 0 0 0 0 0 0 0 0 0 0 0 0 0 0 0 0 0 0 0 0 0 0 0 0 0 0 0 0 0 0 0 0 0 0 0 0
0 0 0 0 0 0 0 0 0 0 0 0 0 0 0 0 0 0 0 0 0 0 0 0 0 0 0 0 0 0 0 0 0 0 0 0 0 0 0 0 0 0 0
0 0 0 0 0 0 0 0 0 0 0 0 0 0 0 0 0 0 0 0 0 0 0 0 0 0 0 0 0 0 0 0 0 0 0 0 0 0 0 0 0 0 0
0 0 0 0 0 0 0 0 0 0 0 0 0 0 0 0 0 0 0 0 0 0 0 0 0 0 0 0 0 0 0 0 0 0 0 0 0 0 0 0 0 0 0
0 0 0 0 0 0 0 0 0 0 0 0 0 0 0 0 0 0 0 0 0 0 0 0 0 0 0 0 0 0 0 0 0 0 0 0 0 0 0 0 0 0 0
0 0 0 0 0 0 0 0 0 0 0 0 0 0 0 0 0 0 0 0 0 0 0 0 0 0 0 0 0 0 0 0 0 0 0 0 0 0 0 0 0 0 0
0 0 0 0 0 0 0 0 0 0 0 0 0 0 0 0 0 0 0 0 0 0 0 0 0 0 0 0 0 0 0 0 0 0 0 0 0 0 0 0 0 0 0
0 0 0 0 0 0 0 0 0 0 0 0 0 0 0 0 0 0 0 0 0 0 0 0 0 0 0 0 0 0 0 0 0 0 0 0 0 0 0 0 0 0 0
0 0 0 0 0 0 0 0 0 0 0 0 0 0 0 0 0 0 0 0 0 0 0 0 0 0 0 0 0 0 0 0 0 0 0 0 0 0 0 0 0 0 0
0 0 0 0 0 0 0 0 0 0 0 0 0 0 0 0 0 0 0 0 0 0 0 0 0 0 0 0 0 0 0 0 0 0 0 0 0 0 0 0 0 0 0
0 0 0 0 0 0 0 0 0 0 0 0 0 0 0 0 0 0 0 0 0 0 0 0 0 0 0 0 0 0 0 0 0 0 0 0 0 0 0 0 0 0 0
0 0 0 0 0 0 0 0 0 0 0 0 0 0 0 0 0 0 0 0 0 0 0 0 0 0 0 0 0 0 0 0 0 0 0 0 0 0 0 0 0 0 0
Wind_Speed
0 0 0 0 0 0 1 0 0 1 1 1 2 3 3 4 3 3 3 8 8 8 9 8 8 9 10 10 10 10 10 10 10 10 10 10 10 9 9 9 9 9 10
1 1 0 0 0 0 1 1 1 1 1 2 2 3 4 3 3 4 4 5 8 8 9 9 9 9 10 10 10 10 10 10 10 9 10 10 10 10 10 10 9 9 9
1 1 0 0 1 0 0 0 0 0 1 1 2 3 3 3 3 4 4 3 4 6 8 8 8 8 8 9 9 9 9 10 10 10 10 10 10 10 10 10 10 9 9
1 1 0 1 0 0 1 1 0 0 1 1 2 2 2 3 3 3 3 3 3 3 4 7 7 8 9 9 8 8 9 10 10 10 10 10 10 10 10 10 10 10 9
1 1 1 1 0 1 0 0 0 0 1 2 2 2 2 2 3 3 3 3 3 3 3 5 7 8 8 8 7 8 8 10 10 10 10 10 10 10 10 10 10 10 10
1 1 1 0 0 1 0 0 0 0 1 1 1 2 2 2 2 2 3 2 2 3 3 4 3 5 8 7 7 8 9 9 9 9 10 11 11 11 10 10 11 11 10
1 2 1 1 1 1 1 1 1 0 1 1 1 2 2 2 1 2 2 2 2 3 3 3 3 3 3 6 7 8 9 10 10 10 10 10 11 11 11 11 11 11 11
2 2 2 1 1 1 0 1 1 1 1 1 1 1 2 3 2 1 1 1 2 2 3 4 3 4 3 3 5 8 9 10 10 10 10 10 11 11 11 10 10 11 11
1 1 1 1 1 1 1 1 1 2 1 0 0 1 0 1 2 2 1 1 2 2 2 3 3 4 4 3 4 7 9 9 10 10 9 9 9 10 10 10 10 10 10
0 1 1 1 1 1 1 1 1 1 1 1 0 0 1 2 1 2 2 2 2 2 3 3 3 3 3 3 4 6 7 7 8 8 8 8 8 8 9 9 11 11 11
0 0 0 1 1 1 1 1 1 1 1 2 1 1 1 0 1 1 3 3 3 2 2 3 2 2 3 3 3 5 6 7 6 7 7 7 8 9 9 9 10 11 12
1 1 0 0 1 1 1 1 1 1 1 1 1 1 1 1 1 1 2 3 3 3 3 2 2 2 2 3 4 5 5 5 5 6 7 7 7 7 8 9 10 11 12
1 2 1 1 1 1 1 1 1 1 1 1 2 1 1 2 1 1 2 2 2 2 2 2 2 2 2 2 3 6 5 5 5 5 5 6 6 6 7 7 8 9 11
3 2 2 1 1 1 1 1 1 1 1 1 1 1 1 1 2 2 2 1 2 2 2 3 2 2 2 2 4 5 4 5 5 5 5 5 4 5 5 6 6 5 6
3 2 2 2 1 1 1 1 1 1 1 1 1 1 1 1 1 1 2 2 2 2 3 2 2 2 2 2 3 3 3 4 4 4 4 4 4 4 4 4 5 4 4
2 2 2 2 1 1 1 1 1 1 1 1 1 1 1 2 1 1 1 2 2 3 3 2 2 3 3 3 3 3 3 5 4 4 4 4 4 4 3 3 4 4 4
2 3 3 2 1 1 1 1 1 1 1 1 1 1 2 2 1 2 1 2 2 2 3 3 2 2 2 3 4 3 3 3 3 3 3 3 3 3 3 3 3 3 4
2 3 2 2 2 2 1 2 2 2 2 2 2 2 2 2 2 2 2 2 2 3 3 4 3 2 3 3 3 3 3 3 2 3 3 3 3 2 2 3 3 3 3
3 2 2 3 3 3 2 2 2 2 2 3 3 3 3 2 2 2 2 2 2 2 2 3 3 2 2 2 3 3 3 2 3 3 2 2 2 2 2 2 2 2 3
3 3 3 3 3 3 3 3 2 2 3 3 3 3 3 3 3 3 2 2 2 2 2 2 3 2 2 2 2 2 3 2 3 3 3 2 2 2 2 2 2 2 2
3 3 3 3 3 3 3 3 3 3 3 3 3 3 4 4 4 3 3 2 2 2 2 2 3 3 3 2 2 2 3 3 3 2 2 2 1 1 2 2 2 2 2
3 2 3 3 3 3 4 5 3 3 3 3 3 3 4 4 4 4 4 4 3 3 3 3 3 3 4 3 2 2 2 3 3 1 2 3 2 2 2 2 2 3 3
2 3 3 3 3 3 3 3 4 3 3 3 3 3 3 3 3 3 3 4 4 5 5 4 4 5 4 3 3 3 3 3 4 3 2 3 2 3 3 3 3 3 3
2 2 2 2 3 4 4 4 3 2 2 3 3 3 3 3 3 3 3 3 4 4 4 4 5 5 5 4 4 4 4 4 4 3 2 3 3 3 4 3 4 4 3
2 2 2 2 3 4 4 4 2 2 2 3 3 3 3 4 5 4 3 4 4 5 4 4 5 5 5 5 3 2 2 2 3 3 2 2 2 3 3 3 3 4 4
2 2 2 3 3 4 4 3 2 2 2 3 3 3 4 4 5 4 3 4 5 5 4 4 4 4 4 4 4 4 4 3 2 3 2 2 2 1 2 2 2 2 3
Wind_Direction
212 233 284 310 281 194 184 185 199 233 250 248 246 244 249 246 247 242 253 254 251 248 247 245 244 240 234 233 231 226 224 228 227 225 228 232 232 229 229 227 223 225 226
192 183 251 310 286 233 193 187 204 227 250 245 251 248 249 246 244 246 247 260 259 252 248 247 247 246 243 240 235 229 227 230 229 228 231 234 233 231 229 229 229 228 228
183 173 188 268 278 258 136 109 104 228 263 262 266 259 251 248 243 247 250 254 265 262 256 252 249 249 248 243 240 237 232 234 235 234 232 232 234 233 229 231 232 229 229
173 148 193 250 272 108 117 136 173 353 290 276 271 270 263 261 259 253 249 251 255 261 267 262 257 250 247 247 244 243 240 239 241 239 234 231 231 232 232 231 230 228 228
164 153 201 253 138 114 131 217 117 212 269 287 277 270 268 260 261 260 256 255 253 254 258 264 263 258 254 252 253 253 252 249 245 243 238 234 231 228 228 229 228 229 229
178 157 173 228 136 125 139 150 172 225 248 281 297 304 282 267 253 254 257 260 258 256 256 259 264 265 262 260 257 259 262 260 252 248 244 239 233 228 228 229 229 230 230
187 166 177 178 170 178 205 178 156 48 350 353 11 334 316 289 262 253 258 263 271 268 262 256 256 260 265 260 255 255 261 264 259 250 247 244 239 231 229 231 231 230 229
200 182 178 190 193 180 162 149 137 98 359 41 82 19 339 336 332 307 278 256 274 271 267 260 252 252 258 259 262 258 260 263 262 255 251 245 240 234 231 231 232 231 229
193 190 182 184 189 184 200 201 166 157 191 323 116 140 139 292 309 312 291 285 293 285 278 275 265 261 256 253 261 263 264 265 263 261 259 247 239 233 230 231 232 230 231
173 180 192 184 188 183 192 218 183 187 178 223 257 221 199 195 249 312 314 307 299 288 284 286 281 275 270 264 260 264 266 264 261 261 265 255 241 231 230 232 235 232 231
323 276 228 179 179 182 193 207 178 189 195 200 196 205 213 198 208 227 293 314 318 297 290 286 288 291 289 278 269 271 267 263 260 261 263 258 250 241 237 238 241 239 237
308 301 259 209 199 188 202 207 205 214 233 219 205 200 208 203 214 215 259 288 297 298 301 292 297 295 286 285 286 293 280 276 269 264 261 258 256 249 246 244 245 245 241
249 260 244 221 213 206 205 195 198 229 231 223 223 228 227 229 216 211 236 270 284 294 302 294 278 295 297 289 290 301 293 288 274 269 268 263 254 251 248 248 250 249 245
232 231 220 227 234 214 194 177 195 222 215 235 245 230 234 247 221 213 215 236 286 297 295 294 301 298 306 299 306 308 298 292 279 270 269 266 260 259 253 248 250 256 253
229 222 214 216 223 210 197 180 188 223 214 236 246 238 246 262 239 229 221 215 226 276 289 290 292 306 310 299 318 307 301 308 294 283 270 260 257 260 256 252 251 252 247
216 213 223 217 224 225 208 201 218 218 203 247 237 233 251 265 262 250 236 229 218 226 260 271 266 291 309 318 328 311 304 317 306 296 281 271 264 261 255 252 252 250 245
207 213 212 208 217 235 226 205 246 226 213 249 259 244 259 262 269 270 249 234 230 221 249 274 271 290 294 309 318 312 305 303 312 309 295 288 283 273 262 254 253 254 254
214 211 203 204 215 229 229 219 249 248 229 236 247 249 267 269 272 274 262 254 247 232 233 268 282 287 281 298 304 310 317 314 304 314 301 296 303 305 284 260 247 247 249
212 206 199 214 228 231 230 229 225 236 240 242 241 240 250 249 267 268 263 263 262 256 234 252 278 278 282 307 318 322 324 314 311 314 307 300 309 318 313 282 256 251 252
212 212 214 224 230 231 229 228 222 233 248 253 249 245 248 241 247 252 257 256 253 258 255 259 276 285 283 296 302 312 321 321 310 312 319 314 318 319 322 305 281 276 263
231 222 222 232 236 236 235 224 224 235 243 258 263 259 256 253 247 247 257 251 247 251 259 268 278 285 292 300 301 296 294 306 299 294 310 308 315 317 314 299 273 275 273
239 230 228 231 240 251 247 227 216 230 239 250 263 271 269 270 267 263 259 249 237 241 250 252 266 274 282 280 285 288 292 304 298 295 296 294 288 288 294 295 290 279 269
234 236 244 242 250 263 254 242 228 220 229 242 249 259 274 279 271 262 266 270 267 261 247 237 248 258 265 266 269 277 273 273 272 281 282 283 281 281 287 287 275 269 263
232 238 244 246 253 265 260 247 238 221 229 243 245 243 250 270 270 257 261 274 274 270 260 245 243 253 257 254 242 254 263 277 277 268 233 263 275 279 287 283 268 259 262
239 239 243 244 252 267 267 258 244 231 245 260 261 255 248 256 266 261 254 268 282 285 279 269 260 262 265 262 244 234 247 259 280 275 224 250 275 288 283 273 272 265 267
247 251 258 256 255 266 272 258 239 228 251 271 278 271 259 256 264 260 245 255 273 281 292 303 297 287 274 267 244 220 222 235 260 269 235 234 262 287 290 279 276 282 277